Radiation Dose measured at Intake/Vertical shaft monitor
Date,Time,Intake(cps),Vertical shaft(cps),Rain
2023/11/12,00:00,9.6,4.7,No
2023/11/12,00:10,9.3,4.8,No
2023/11/12,00:20,9.4,4.7,No
2023/11/12,00:30,9.6,4.9,No
2023/11/12,00:40,9.3,4.9,No
2023/11/12,00:50,9.3,4.8,No
2023/11/12,01:00,9.4,4.6,No
2023/11/12,01:10,9.3,4.7,No
2023/11/12,01:20,9.2,4.7,No
2023/11/12,01:30,9.3,4.7,No
2023/11/12,01:40,9.4,4.9,No
2023/11/12,01:50,9.2,4.8,No
2023/11/12,02:00,9.2,4.8,No
2023/11/12,02:10,9.3,4.9,No
2023/11/12,02:20,9.5,4.8,No
2023/11/12,02:30,9.2,4.8,No
2023/11/12,02:40,9.4,4.8,No
2023/11/12,02:50,9.2,4.9,No
2023/11/12,03:00,9.2,4.8,No
2023/11/12,03:10,9.3,4.7,No
2023/11/12,03:20,9.4,5.0,No
2023/11/12,03:30,9.3,4.8,No
2023/11/12,03:40,9.4,4.6,No
2023/11/12,03:50,9.2,4.6,No
2023/11/12,04:00,9.1,4.7,No
2023/11/12,04:10,9.2,4.9,No
2023/11/12,04:20,9.3,4.7,No
2023/11/12,04:30,9.3,4.6,No
2023/11/12,04:40,9.4,4.8,No
2023/11/12,04:50,9.3,4.8,No
2023/11/12,05:00,9.5,4.8,No
2023/11/12,05:10,9.3,4.8,No
2023/11/12,05:20,9.6,4.8,No
2023/11/12,05:30,9.4,4.8,No
2023/11/12,05:40,9.1,4.6,No
2023/11/12,05:50,9.3,4.8,No
2023/11/12,06:00,9.2,4.6,No
2023/11/12,06:10,9.4,4.7,No
2023/11/12,06:20,9.2,4.7,No
2023/11/12,06:30,9.4,4.7,No
2023/11/12,06:40,9.4,4.8,No
2023/11/12,06:50,9.3,4.8,No
2023/11/12,07:00,9.2,4.7,No
2023/11/12,07:10,9.3,4.7,No
2023/11/12,07:20,9.3,4.8,No
2023/11/12,07:30,9.6,4.8,No
2023/11/12,07:40,9.2,4.8,No
2023/11/12,07:50,9.1,4.7,No
2023/11/12,08:00,9.3,4.8,No
2023/11/12,08:10,9.3,4.9,No
2023/11/12,08:20,9.2,4.8,No
2023/11/12,08:30,9.5,4.6,No
2023/11/12,08:40,9.3,4.7,No
2023/11/12,08:50,9.3,4.8,No
2023/11/12,09:00,9.4,4.7,No
2023/11/12,09:10,9.6,4.7,No
2023/11/12,09:20,9.1,4.6,No
2023/11/12,09:30,9.2,4.8,No
2023/11/12,09:40,9.6,4.8,No
2023/11/12,09:50,9.2,4.8,No
2023/11/12,10:00,9.5,4.8,No
2023/11/12,10:10,9.4,4.8,No
2023/11/12,10:20,9.3,4.7,No
2023/11/12,10:30,9.5,4.7,No
2023/11/12,10:40,9.4,4.8,No
2023/11/12,10:50,9.5,4.8,No
2023/11/12,11:00,9.2,4.8,No
2023/11/12,11:10,9.4,4.7,Yes
2023/11/12,11:20,9.3,4.9,Yes
2023/11/12,11:30,9.3,4.8,Yes
2023/11/12,11:40,9.1,4.7,Yes
2023/11/12,11:50,9.4,4.7,No
2023/11/12,12:00,9.5,4.8,No
2023/11/12,12:10,9.4,4.7,No
2023/11/12,12:20,9.5,4.9,No
2023/11/12,12:30,9.2,4.9,No
2023/11/12,12:40,9.6,4.8,No
2023/11/12,12:50,9.2,4.7,No
2023/11/12,13:00,9.2,4.8,No
2023/11/12,13:10,9.1,4.8,No
2023/11/12,13:20,9.2,4.7,Yes
2023/11/12,13:30,9.5,4.8,Yes
2023/11/12,13:40,9.4,4.8,Yes
2023/11/12,13:50,9.3,4.8,No
2023/11/12,14:00,9.4,4.8,No
2023/11/12,14:10,9.4,4.7,Yes
2023/11/12,14:20,9.4,4.7,No
2023/11/12,14:30,9.1,4.7,No
2023/11/12,14:40,9.4,4.8,No
2023/11/12,14:50,9.6,4.9,No
2023/11/12,15:00,9.4,4.7,No
2023/11/12,15:10,9.5,4.8,No
2023/11/12,15:20,9.3,4.8,Yes
2023/11/12,15:30,9.4,4.7,No
2023/11/12,15:40,9.3,4.7,Yes
2023/11/12,15:50,9.4,4.8,Yes
2023/11/12,16:00,9.3,4.8,Yes
2023/11/12,16:10,9.4,4.7,Yes
2023/11/12,16:20,9.4,4.7,Yes
2023/11/12,16:30,9.4,4.5,Yes
2023/11/12,16:40,9.2,4.7,Yes
2023/11/12,16:50,9.5,4.8,Yes
2023/11/12,17:00,9.5,4.7,Yes
2023/11/12,17:10,9.7,4.9,Yes
2023/11/12,17:20,10.0,5.0,Yes
2023/11/12,17:30,9.8,5.1,Yes
2023/11/12,17:40,9.9,5.0,Yes
2023/11/12,17:50,10.0,5.1,Yes
2023/11/12,18:00,10.0,5.2,Yes
2023/11/12,18:10,9.9,5.2,Yes
2023/11/12,18:20,10.0,5.0,Yes
2023/11/12,18:30,10.0,5.1,Yes
2023/11/12,18:40,10.0,5.2,Yes
2023/11/12,18:50,11.0,5.4,Yes
2023/11/12,19:00,11.0,5.5,Yes
2023/11/12,19:10,11.0,5.3,Yes
2023/11/12,19:20,11.0,5.5,Yes
2023/11/12,19:30,11.0,5.7,Yes
2023/11/12,19:40,11.0,5.7,Yes
2023/11/12,19:50,12.0,5.7,Yes
2023/11/12,20:00,12.0,5.8,Yes
2023/11/12,20:10,12.0,5.8,Yes
2023/11/12,20:20,12.0,5.7,Yes
2023/11/12,20:30,12.0,6.0,Yes
2023/11/12,20:40,12.0,6.0,Yes
2023/11/12,20:50,12.0,5.9,Yes
2023/11/12,21:00,12.0,5.9,Yes
2023/11/12,21:10,12.0,6.0,Yes
2023/11/12,21:20,13.0,5.7,Yes
2023/11/12,21:30,14.0,6.0,Yes
2023/11/12,21:40,15.0,6.4,Yes
2023/11/12,21:50,15.0,6.8,Yes
2023/11/12,22:00,15.0,6.7,Yes
2023/11/12,22:10,16.0,6.8,Yes
2023/11/12,22:20,16.0,7.1,Yes
2023/11/12,22:30,16.0,7.3,Yes
2023/11/12,22:40,15.0,7.6,Yes
2023/11/12,22:50,15.0,7.1,Yes
2023/11/12,23:00,15.0,6.7,Yes
2023/11/12,23:10,15.0,6.5,Yes
2023/11/12,23:20,15.0,6.6,Yes
2023/11/12,23:30,16.0,6.7,Yes
2023/11/12,23:40,17.0,7.0,Yes
2023/11/12,23:50,17.0,7.4,Yes
